TimeEST,TemperatureF,Dew PointF,Humidity,Sea Level PressureIn,VisibilityMPH,Wind Direction,Wind SpeedMPH,Gust SpeedMPH,PrecipitationIn,Events,Conditions,WindDirDegrees,DateUTC
12:53 AM,9.0,6.1,88,30.13,10.0,Calm,Calm,-,N/A,,Mostly Cloudy,0,2013-01-26 05:53:00
1:53 AM,8.1,5.0,87,30.12,6.0,Calm,Calm,-,N/A,,Overcast,0,2013-01-26 06:53:00
2:08 AM,8.6,5.0,85,30.08,4.0,Calm,Calm,-,0.00,Snow,Light Snow,0,2013-01-26 07:08:00
2:39 AM,8.6,5.0,85,30.08,2.5,Calm,Calm,-,0.00,Snow,Light Snow,0,2013-01-26 07:39:00
2:53 AM,7.0,3.9,87,30.12,2.5,Calm,Calm,-,0.00,Snow,Light Snow,0,2013-01-26 07:53:00
3:03 AM,8.6,3.2,79,30.07,3.0,Calm,Calm,-,0.00,Snow,Light Snow,0,2013-01-26 08:03:00
3:14 AM,8.6,3.2,79,30.07,2.5,Calm,Calm,-,0.00,Snow,Light Snow,0,2013-01-26 08:14:00
3:35 AM,6.8,3.2,85,30.07,4.0,Calm,Calm,-,0.00,Snow,Light Snow,0,2013-01-26 08:35:00
3:53 AM,6.1,3.0,87,30.12,5.0,Calm,Calm,-,0.00,Snow,Light Snow,0,2013-01-26 08:53:00
4:29 AM,1.4,-0.4,92,30.08,9.0,Calm,Calm,-,0.00,,Scattered Clouds,0,2013-01-26 09:29:00
4:53 AM,1.0,-2.9,83,30.13,10.0,Calm,Calm,-,0.00,,Clear,0,2013-01-26 09:53:00
5:53 AM,-0.0,-4.0,83,30.15,10.0,Calm,Calm,-,N/A,,Mostly Cloudy,0,2013-01-26 10:53:00
6:07 AM,-0.4,-4.0,85,30.11,10.0,Calm,Calm,-,N/A,,Overcast,0,2013-01-26 11:07:00
6:37 AM,-0.4,-5.8,78,30.12,10.0,Calm,Calm,-,N/A,,Mostly Cloudy,0,2013-01-26 11:37:00
6:53 AM,-0.9,-5.1,83,30.17,10.0,Calm,Calm,-,N/A,,Scattered Clouds,0,2013-01-26 11:53:00
7:12 AM,-0.4,-5.8,78,30.13,2.0,Calm,Calm,-,N/A,,Partly Cloudy,0,2013-01-26 12:12:00
7:20 AM,-2.2,-5.8,85,30.13,1.5,Calm,Calm,-,N/A,,Clear,0,2013-01-26 12:20:00
7:25 AM,-2.2,-5.8,85,30.13,3.0,Calm,Calm,-,N/A,,Clear,0,2013-01-26 12:25:00
7:53 AM,-2.0,-5.1,87,30.20,8.0,Calm,Calm,-,N/A,,Mostly Cloudy,0,2013-01-26 12:53:00
8:53 AM,8.1,3.0,80,30.20,10.0,Calm,Calm,-,N/A,,Mostly Cloudy,0,2013-01-26 13:53:00
9:08 AM,8.6,3.2,79,30.16,10.0,North,5.8,-,N/A,,Scattered Clouds,360,2013-01-26 14:08:00
9:44 AM,8.6,3.2,79,30.17,10.0,NW,3.5,-,N/A,,Mostly Cloudy,310,2013-01-26 14:44:00
9:53 AM,9.0,1.9,73,30.22,10.0,NNW,3.5,-,N/A,,Mostly Cloudy,330,2013-01-26 14:53:00
10:53 AM,9.0,1.9,73,30.22,9.0,Calm,Calm,-,0.00,,Scattered Clouds,0,2013-01-26 15:53:00
11:53 AM,12.9,3.0,65,30.20,10.0,Calm,Calm,-,N/A,,Clear,0,2013-01-26 16:53:00
12:53 PM,12.9,1.0,59,30.18,10.0,East,3.5,-,N/A,,Clear,90,2013-01-26 17:53:00
1:53 PM,15.1,1.0,54,30.19,10.0,Calm,Calm,-,N/A,,Partly Cloudy,0,2013-01-26 18:53:00
2:53 PM,16.0,1.9,54,30.21,10.0,Calm,Calm,-,N/A,,Scattered Clouds,0,2013-01-26 19:53:00
3:53 PM,18.0,-5.1,36,30.23,10.0,North,10.4,-,N/A,,Overcast,350,2013-01-26 20:53:00
4:53 PM,17.1,-6.0,36,30.26,10.0,NW,9.2,-,N/A,,Clear,320,2013-01-26 21:53:00
5:53 PM,16.0,-5.1,39,30.28,10.0,North,8.1,-,N/A,,Clear,350,2013-01-26 22:53:00
6:53 PM,10.0,-4.0,53,30.30,10.0,Calm,Calm,-,N/A,,Clear,0,2013-01-26 23:53:00
7:53 PM,10.0,-2.9,56,30.32,10.0,Calm,Calm,-,N/A,,Clear,0,2013-01-27 00:53:00
8:53 PM,5.0,-4.0,66,30.32,10.0,Calm,Calm,-,N/A,,Partly Cloudy,0,2013-01-27 01:53:00
9:53 PM,3.9,-2.9,73,30.35,10.0,Calm,Calm,-,N/A,,Mostly Cloudy,0,2013-01-27 02:53:00
10:53 PM,1.9,-4.0,76,30.36,10.0,Calm,Calm,-,N/A,,Clear,0,2013-01-27 03:53:00
11:53 PM,1.0,-4.0,79,30.36,10.0,WSW,4.6,-,N/A,,Clear,250,2013-01-27 04:53:00